CZ-4B DEB, 56088

Orbit data source: Space-Track

CZ-4B DEB, 56088 is space debris in SSO originally from a launch on Wed, 24 Oct 2018 UTC launched from the Taiyaun Space Center, China (TSC). Debris objects in space refer to the collection of defunct objects orbiting the Earth. Examples of debris include non-operational satellites, rocket bodies, and fragments generated from explosions, collisions, or faulty payload assembly.

Loading next visibility...
Identifier
56088, 2018-081J
Orbit
SSO
Country
Flag of CNCN / PRC
Related business
Manufacturer
Unknown
Mission
Spacecraft
Bus & Motor
Unknown
Mass
Unknown
Launch date (UTC)
2018-10-24 (7 years ago)
Launch vehicle
Unknown
Launch site
Taiyaun Space Center, China (TSC)
Object type
Payload
Rocket body
Debris
Shape & HBR
Unknown shape, 0.1 m
Radar Cross Section
Small (<0.1 m²)

Expand to show TLE details & history
Last TLE update: 2 days ago

TLE from 2 days ago
0 CZ-4B DEB
1 56088U 18081J   25308.14287175  .00011556  00000-0  43085-2 0  9998
2 56088  98.7697 102.3225 0142356 173.4141 186.8954 14.26629188133603
Epoch: 2025-11-04T03:25Z
TLE epoch observation values (Epoch: 2025-11-04T03:25:44.119Z)
Latitude
0.00001°
Longitude
7.25454°
Altitude
907.472 km
Speed
7.346 km/s
True Right ascension
06h 49m 17s
True Declination
0° 00' 00"
Sunlit
Object was in daylight at epoch
Visualization orbit readout
Latitude
Unknown
Longitude
Unknown
Altitude
Unknown
Speed
Unknown
Apparent Right ascension
Unknown
Apparent Declination
Unknown
Sunlit
N/A
Visualization observer readout
Local Sidereal Time
08:29:45
Azimuth
Unknown
Elevation
Unknown
Doppler factor
Unknown
Orbital elements
Apogee altitude
902.36 km
Perigee altitude
697.984 km
Semi-major axis
7,178.309 km
Eccentricity
0.01424
Inclination
98.7697°
RAAN
102.3225°
Arg. of periapsis
173.4141°
True anomaly
186.70296°
Mean anomaly
186.8954°
Eccentric anomaly
186.79884°
Mean motion
3.5687 °/min
Orbital period
100.88 mins
BSTAR
0.0043085
Loading maneuver chart data...
Computing Atmospheric mass density...
Loading historical data...
Loading historical data...
Loading historical data...
Loading historical data...
Loading historical data...
Loading historical data...
Loading historical data...

Documentation

Showing up to 5 results
|